Location: St. Louis
(38.6270°N, 90.1994°W)
Time: 07:35:06
(UTC-06:00)

Transit 2A - Pass Details

Date: 03 December 2021
Orbit: 591 x 967 km, 66.7° (Epoch: 20 January)

Event Time Altitude Azimuth Distance (km) Brightness Sun altitude
Rises 01:35:16 0° 253° (WSW) 3,325 - -62.2°
Reaches altitude 10° 01:38:18 10° 271° (W) 2,466 - -61.7°
Maximum altitude 01:42:25 20° 316° (NW) 1,947 - -61.0°
Drops below altitude 10° 01:46:47 10° 2° (N) 2,630 - -60.2°
Sets 01:50:10 0° 19° (NNE) 3,620 - -59.6°
